When you browse on this site, cookies collect data to enhance your experience and personalize the content and advertising you see.
Visit our Privacy Policy to learn more. By continuing to use the site, you agree to this use of cookies and data.
  • In Hungary
  • List of Countries
  • For 7 days
  • Water Temperature
  • Weather Map
  • News
  • Weather Widgets
  • user-avatar
    Login

    Hourly Weather Malynivshchyna

    Today, 15 November, Friday

    Time Temperature Precipitation Wind Pressure Humidity
    00:00 +3°C° 0 mm 5 mps 757 mmHg 62%
    01:00 +3°C° 0 mm 5 mps 757 mmHg 63%
    02:00 +3°C° 0 mm 4 mps 757 mmHg 67%
    03:00 +3°C° 0 mm 4 mps 757 mmHg 68%
    04:00 +3°C° 0 mm 4 mps 757 mmHg 69%
    05:00 +2°C° 0 mm 5 mps 756 mmHg 70%
    06:00 +2°C° 0 mm 5 mps 757 mmHg 70%
    07:00 +2°C° 0 mm 5 mps 757 mmHg 70%
    08:00 +4°C° 0 mm 4 mps 757 mmHg 70%
    09:00 +5°C° 0 mm 4 mps 757 mmHg 66%
    10:00 +6°C° 0 mm 5 mps 757 mmHg 63%
    11:00 +7°C° 0 mm 5 mps 757 mmHg 60%
    12:00 +7°C° 0 mm 5 mps 757 mmHg 59%
    13:00 +7°C° 0 mm 5 mps 757 mmHg 58%
    14:00 +8°C° 0 mm 5 mps 757 mmHg 57%
    15:00 +7°C° 0 mm 4 mps 757 mmHg 60%
    16:00 +7°C° 0 mm 4 mps 757 mmHg 63%
    17:00 +7°C° 0 mm 3 mps 757 mmHg 66%
    18:00 +7°C° 0 mm 3 mps 757 mmHg 68%
    19:00 +7°C° 0 mm 3 mps 757 mmHg 69%
    20:00 +7°C° 0 mm 3 mps 758 mmHg 71%
    21:00 +7°C° 0 mm 3 mps 758 mmHg 72%
    22:00 +7°C° 0 mm 3 mps 758 mmHg 74%
    23:00 +7°C° 0 mm 3 mps 758 mmHg 75%

    Tomorrow, 16 November, Saturday

    Time Temperature Precipitation Wind Pressure Humidity
    00:00 +5°C° 0 mm 3 mps 758 mmHg 77%
    01:00 +5°C° 0 mm 3 mps 758 mmHg 79%
    02:00 +5°C° 0 mm 3 mps 759 mmHg 81%
    03:00 +4°C° 0 mm 3 mps 758 mmHg 82%
    04:00 +4°C° 0 mm 3 mps 758 mmHg 83%
    05:00 +4°C° 0 mm 3 mps 758 mmHg 84%
    06:00 +4°C° 0 mm 3 mps 759 mmHg 84%
    07:00 +4°C° 0 mm 3 mps 759 mmHg 83%
    08:00 +4°C° 0 mm 4 mps 759 mmHg 83%
    09:00 +6°C° 0 mm 4 mps 759 mmHg 78%
    10:00 +8°C° 0 mm 3 mps 759 mmHg 73%
    11:00 +9°C° 0 mm 3 mps 760 mmHg 69%
    12:00 +10°C° 0 mm 3 mps 760 mmHg 68%
    13:00 +10°C° 0 mm 3 mps 760 mmHg 67%
    14:00 +11°C° 0 mm 3 mps 760 mmHg 66%
    15:00 +10°C° 0 mm 3 mps 760 mmHg 69%
    16:00 +10°C° 0 mm 3 mps 760 mmHg 71%
    17:00 +9°C° 0 mm 3 mps 760 mmHg 73%
    18:00 +9°C° 0 mm 3 mps 760 mmHg 74%
    19:00 +8°C° 0 mm 3 mps 760 mmHg 75%
    20:00 +7°C° 0 mm 4 mps 760 mmHg 76%
    21:00 +7°C° 0 mm 3 mps 760 mmHg 78%
    22:00 +7°C° 0 mm 3 mps 760 mmHg 81%
    23:00 +5°C° 0 mm 3 mps 760 mmHg 83%

    Day after tomorrow, 17 November, Sunday

    Time Temperature Precipitation Wind Pressure Humidity
    00:00 +5°C° 0 mm 3 mps 761 mmHg 83%
    01:00 +6°C° 0 mm 2 mps 761 mmHg 84%
    02:00 +6°C° 0 mm 2 mps 761 mmHg 85%
    03:00 +5°C° 0 mm 2 mps 761 mmHg 85%
    04:00 +5°C° 0 mm 2 mps 761 mmHg 85%
    05:00 +4°C° 0 mm 3 mps 761 mmHg 86%
    06:00 +4°C° 0 mm 3 mps 761 mmHg 85%
    07:00 +4°C° 0 mm 3 mps 761 mmHg 84%
    08:00 +4°C° 0 mm 3 mps 761 mmHg 83%
    09:00 +5°C° 0 mm 3 mps 761 mmHg 77%
    10:00 +7°C° 0 mm 3 mps 761 mmHg 71%
    11:00 +8°C° 0 mm 3 mps 761 mmHg 65%
    12:00 +9°C° 0 mm 3 mps 761 mmHg 64%
    13:00 +9°C° 0 mm 3 mps 761 mmHg 62%
    14:00 +10°C° 0 mm 3 mps 761 mmHg 61%
    15:00 +9°C° 0 mm 3 mps 760 mmHg 66%
    16:00 +8°C° 0 mm 3 mps 760 mmHg 71%
    17:00 +5°C° 0 mm 3 mps 760 mmHg 76%
    18:00 +5°C° 0 mm 3 mps 760 mmHg 79%
    19:00 +5°C° 0 mm 3 mps 760 mmHg 81%
    20:00 +4°C° 0 mm 3 mps 760 mmHg 83%
    21:00 +4°C° 0 mm 3 mps 760 mmHg 85%
    22:00 +3°C° 0 mm 3 mps 760 mmHg 87%
    23:00 +3°C° 0 mm 3 mps 760 mmHg 89%

    18 November, Monday

    Time Temperature Precipitation Wind Pressure Humidity
    00:00 +3°C° 0 mm 3 mps 759 mmHg 90%
    01:00 +2°C° 0 mm 3 mps 759 mmHg 91%
    02:00 +2°C° 0 mm 3 mps 759 mmHg 92%
    03:00 +2°C° 0 mm 3 mps 759 mmHg 92%
    04:00 +2°C° 0 mm 3 mps 759 mmHg 92%
    05:00 +2°C° 0 mm 3 mps 758 mmHg 93%
    06:00 +2°C° 0 mm 3 mps 758 mmHg 93%
    07:00 +2°C° 0 mm 3 mps 758 mmHg 93%
    08:00 +2°C° 0 mm 3 mps 759 mmHg 93%
    09:00 +3°C° 0 mm 3 mps 758 mmHg 86%
    10:00 +5°C° 0 mm 3 mps 758 mmHg 80%
    11:00 +7°C° 0 mm 3 mps 758 mmHg 74%
    12:00 +8°C° 0 mm 3 mps 758 mmHg 72%
    13:00 +8°C° 0 mm 4 mps 758 mmHg 70%
    14:00 +8°C° 0 mm 4 mps 757 mmHg 68%
    15:00 +8°C° 0 mm 3 mps 757 mmHg 73%
    16:00 +7°C° 0 mm 3 mps 757 mmHg 79%
    17:00 +5°C° 0 mm 3 mps 757 mmHg 84%
    18:00 +5°C° 0 mm 3 mps 757 mmHg 85%
    19:00 +4°C° 0 mm 3 mps 758 mmHg 86%
    20:00 +4°C° 0 mm 3 mps 758 mmHg 87%
    21:00 +4°C° 0 mm 3 mps 758 mmHg 88%
    22:00 +4°C° 0 mm 3 mps 758 mmHg 89%
    23:00 +5°C° 0 mm 2 mps 758 mmHg 90%

    19 November, Tuesday

    Time Temperature Precipitation Wind Pressure Humidity
    00:00 +4°C° 0 mm 2 mps 758 mmHg 91%
    01:00 +4°C° 0 mm 2 mps 758 mmHg 91%
    02:00 +5°C° 0 mm 1 mps 758 mmHg 92%
    03:00 +5°C° 0 mm 1 mps 758 mmHg 92%
    04:00 +6°C° 0 mm 1 mps 758 mmHg 91%
    05:00 +6°C° 0 mm 1 mps 758 mmHg 91%
    06:00 +5°C° 0 mm 2 mps 758 mmHg 91%
    07:00 +6°C° 0 mm 2 mps 758 mmHg 90%
    08:00 +6°C° 0 mm 2 mps 758 mmHg 90%
    09:00 +7°C° 0 mm 2 mps 759 mmHg 88%
    10:00 +7°C° 0 mm 2 mps 759 mmHg 87%
    11:00 +8°C° 0 mm 2 mps 759 mmHg 85%
    12:00 +8°C° 0 mm 2 mps 759 mmHg 85%
    13:00 +8°C° 0 mm 2 mps 759 mmHg 85%
    14:00 +9°C° 0 mm 1 mps 758 mmHg 85%
    15:00 +8°C° 0 mm 2 mps 758 mmHg 86%
    16:00 +8°C° 0 mm 2 mps 759 mmHg 87%
    17:00 +8°C° 0 mm 2 mps 759 mmHg 88%
    18:00 +8°C° 0 mm 2 mps 759 mmHg 88%
    19:00 +8°C° 0 mm 2 mps 759 mmHg 88%
    20:00 +8°C° 0 mm 2 mps 759 mmHg 87%
    21:00 +8°C° 0 mm 2 mps 759 mmHg 86%
    22:00 +8°C° 0 mm 3 mps 759 mmHg 85%
    23:00 +8°C° 0 mm 3 mps 759 mmHg 84%

    20 November, Wednesday

    Time Temperature Precipitation Wind Pressure Humidity
    00:00 +7°C° 0 mm 3 mps 759 mmHg 83%
    01:00 +7°C° 0 mm 3 mps 759 mmHg 83%
    02:00 +5°C° 0 mm 3 mps 759 mmHg 83%
    03:00 +5°C° 0 mm 3 mps 759 mmHg 83%
    04:00 +5°C° 0 mm 3 mps 759 mmHg 83%
    05:00 +4°C° 0 mm 3 mps 759 mmHg 83%
    06:00 +4°C° 0 mm 3 mps 760 mmHg 84%
    07:00 +4°C° 0 mm 3 mps 760 mmHg 85%
    08:00 +4°C° 0 mm 4 mps 760 mmHg 86%
    09:00 +4°C° 0 mm 4 mps 761 mmHg 83%
    10:00 +5°C° 0 mm 5 mps 761 mmHg 80%
    11:00 +6°C° 0 mm 5 mps 761 mmHg 77%
    12:00 +5°C° 0 mm 6 mps 761 mmHg 76%
    13:00 +5°C° 0 mm 6 mps 761 mmHg 75%
    14:00 +5°C° 0 mm 7 mps 760 mmHg 74%
    15:00 +5°C° 0 mm 7 mps 761 mmHg 75%
    16:00 +4°C° 0 mm 7 mps 761 mmHg 76%
    17:00 +4°C° 0 mm 7 mps 761 mmHg 77%
    18:00 +4°C° 0 mm 7 mps 761 mmHg 76%
    19:00 +4°C° 0 mm 7 mps 762 mmHg 75%
    20:00 +2°C° 0 mm 8 mps 762 mmHg 74%
    21:00 +2°C° 0 mm 8 mps 762 mmHg 72%
    22:00 +1°C° 0 mm 8 mps 762 mmHg 70%
    23:00 +1°C° 0 mm 8 mps 763 mmHg 67%
    Show more